Regional Weather Roundup
Issued by NWS Boston, MA

Home | Current Version | Previous Version | Text Only | Print | Product List | Glossary On
Versions: 1 2 3 4 5 6 7 8 9 10 11 12 13 14 15 16 17 18 19 20 21 22 23 24 25 26 27 28 29 30 31 32 33 34 35 36 37 38 39 40 41 42 43 44 45 46 47 48 49 50
162
ASUS41 KBOX 230310
RWRBOX

REGIONAL WEATHER ROUNDUP
NATIONAL WEATHER SERVICE TAUNTON MA
1100 PM EDT TUE AUG 22 2017

NOTE:  "FAIR" INDICATES FEW OR NO CLOUDS BELOW 12,000 FEET WITH NO
SIGNIFICANT WEATHER AND/OR OBSTRUCTIONS TO VISIBILITY.

MAZALL-230400-
EASTERN MASSACHUSETTS

CITY           SKY/WX    TMP DP  RH WIND       PRES   REMARKS
BOSTON         MOCLDY    75  71  87 S14       29.71F
BEVERLY        CLOUDY    76  71  85 S10       29.69F
LAWRENCE       CLOUDY    81  72  74 SW12G23   29.71S
BEDFORD        CLOUDY    78  70  76 SW14      29.69F
BLUE HILL        N/A     73  69  87 S20G29    29.73F
NORWOOD        PTCLDY    77  72  84 S12G18    29.71F
MARSHFIELD     MOCLDY    77  72  83 S16G29    29.73F
PLYMOUTH       CLOUDY    75  69  81 SW20G31   29.77F
TAUNTON        CLOUDY    76  70  82 SW15G24   29.76F
NEW BEDFORD    CLOUDY    75  71  87 SW18G33   29.77F
$$

MAZALL-230400-
CAPE COD AND THE ISLANDS

CITY           SKY/WX    TMP DP  RH WIND       PRES   REMARKS
FALMOUTH       MOCLDY    75  72  88 SW26G38   29.79F
HYANNIS        CLOUDY    75  73  93 SW22G30   29.78F
CHATHAM        CLOUDY    74  74 100 SW15G25   29.81F
PROVINCETOWN   CLOUDY    73  69  87 SW17G24   29.76F
NANTUCKET      CLOUDY    70  70 100 S18       29.82F FOG
MARTHAS VNYRD  CLOUDY    74  72  93 SW21G29   29.80F
$$

MAZALL-230400-
CENTRAL AND WESTERN MASSACHUSETTS

CITY           SKY/WX    TMP DP  RH WIND       PRES   REMARKS
WORCESTER      PTCLDY    75  70  84 SW21G28   29.74S
FITCHBURG      CLOUDY    81  72  74 S9        29.70F
ORANGE         RAIN      76  75  97 S8G21     29.70S FOG
SPRINGFIELD    LGT RAIN  78  73  84 S15       29.69S
WESTFIELD      LGT RAIN  78  75  90 S12       29.69F
NORTH ADAMS    HVY RAIN  69  67  93 CALM      29.73F FOG
PITTSFIELD     LGT RAIN  70  68  93 W8        29.75S FOG
$$

RIZALL-230400-
RHODE ISLAND

CITY           SKY/WX    TMP DP  RH WIND       PRES   REMARKS
PROVIDENCE     MOCLDY    76  72  87 SW16G23   29.77F
NEWPORT        CLOUDY    73  73 100 SW8G20    29.79S
BLOCK ISLAND   CLOUDY    72  71  97 SW17G28   29.80S
WESTERLY       CLOUDY    74  72  93 SW10G25   29.79F
$$

CTZALL-230400-
CONNECTICUT

CITY           SKY/WX    TMP DP  RH WIND       PRES   REMARKS
BRADLEY INTL   TSTM      79  74  84 S12       29.71F
HARTFORD       CLOUDY    79  73  82 S12       29.71F
BRIDGEPORT     CLOUDY    78  72  81 SW18      29.74F
DANBURY        RAIN      80  73  79 SW13      29.76F
GROTON         MOCLDY    75  71  87 SW21G30   29.76F
NEW HAVEN      PTCLDY    77  72  84 SW10      29.75F
CHESTER        MOCLDY    75  73  94 S9G18     29.77F
MERIDEN        CLOUDY    77  71  82 S10       29.73F
WILLIMANTIC    PTCLDY    77  73  87 S10       29.75F
OXFORD         CLOUDY    76  72  87 S9G16     29.77F
$$

MEZ002-015-021-024-NHZ003-005-008-011-012-014-VTZ005-008-230400-
NORTHERN NEW ENGLAND

CITY           SKY/WX    TMP DP  RH WIND       PRES   REMARKS
PORTLAND ME    MOCLDY    71  68  90 S15G22    29.65F
BANGOR ME      CLOUDY    71  68  90 S14       29.64F FOG
CONCORD NH     HVY RAIN  77  73  87 W14       29.69R FOG
MANCHESTER NH  CLOUDY    80  70  71 S15       29.66S
NASHUA NH      PTCLDY    79  74  84 VRB5      29.70R
PORTSMOUTH NH  CLOUDY    79  71  76 S10       29.65F
JAFFREY NH     HVY RAIN  71  69  93 NW16G24   29.77R FOG
KEENE NH         N/A    N/A N/A N/A MISG        N/A  THUNDER
BURLINGTON VT  CLOUDY    71  68  90 S10       29.61F
MT. WASHINGTON RAIN      54  54 100 W53G61      N/A  VSB 1/16
$$

NYZ052-076-230400-
EASTERN NEW YORK

CITY           SKY/WX    TMP DP  RH WIND       PRES   REMARKS
ALBANY         LGT RAIN  72  67  84 S7        29.71S
NEW YORK CITY  CLOUDY    83  73  72 SW23G32   29.78R THUNDER
$$

ANZALL-230400-
MARINE OBSERVATIONS

STATION/POSITION TIME  TEMP    WIND        PRES    VSBY  WAVE
                       AIR SEA DIR/SP/G                  HT/PER
                 (UTC) (F)     (DEG/KT/KT) (MB)    (MI)  (FT/S)
BOSTON BUOY      0250   71 66  180/ 16/ 19 1005.9F         3/ 4
BUZZARDS BAY     0200   72     200/ 27/ 30 1008.8F
NANTUCKET SOUND  0250   72 72  200/ 21/ 25 1008.7F         3/ 4
MASS BAY-STELLWA 0204   72 66  190/ 16/ 19 1005.6F         3/ 4
ISLE OF SHOALS   0200   72     180/ 28/ 29 1004.8F
S OF BLOCK IS    NOT AVBL
$$

......................KEY.........................
  SKY/WX - SKY CONDITION/PRESENT WEATHER
  TMP    - TEMPERATURE IN FAHRENHEIT
  DWPT   - DEWPOINT IN FAHRENHEIT
  RH     - RELATIVE HUMIDITY IN PERCENT
  WIND   - DIRECTION AND SPEED IN MPH
  PRES   - MEAN SEA LEVEL PRESSURE IN INCHES OF HG
  WCI    - WIND CHILL INDEX
  VSB    - VISIBILITY IN MILES
  HX     - HEAT INDEX
  TC     - TEMPERATURE IN CELSIUS
  VRB    - VARIABLE WIND DIRECTION
  N/A    - NOT AVAILABLE




USA.gov is the U.S. government's official web portal to all federal, state and local government web resources and services.